Theta_e
308 308 308 308 308 308 308 307 307 307 307 307 307 306 307 307 307 307 308 308 308 308 308 309 309 309 309 309 310 310 310 310 311 315 318 318 316 318 317 315 314 313 314 315 315 315 316 316 316 315 317 319 320 322 321 321 328 336 336 325 326 331 329 329 323 317 319 319 319 318 317 317 317 317 317 317 318 319 319 318 317 316 316 316 316 315 318 321
308 308 308 308 308 309 309 308 308 308 308 308 308 307 308 308 308 308 308 308 308 309 309 309 309 309 309 309 310 310 310 310 315 320 320 318 318 318 317 314 313 313 313 315 316 315 316 317 315 316 320 322 321 321 321 323 325 331 331 325 331 336 332 326 320 318 317 317 319 319 317 318 316 315 317 317 318 318 317 318 316 316 317 316 314 313 318 320
309 309 309 309 308 309 309 309 309 308 308 308 308 308 308 308 308 308 308 309 309 309 309 309 309 309 309 309 310 310 311 314 321 325 319 317 318 317 316 315 314 314 313 315 316 315 316 317 314 317 320 320 322 323 323 322 323 330 327 326 335 335 327 323 320 319 317 317 319 319 318 318 319 317 316 315 318 319 318 318 317 317 317 317 315 313 318 321
310 310 310 309 309 309 310 309 309 309 309 309 309 309 308 308 308 308 308 308 308 309 308 308 309 309 309 309 309 309 313 318 324 322 315 315 315 315 315 314 315 314 313 315 317 316 316 316 314 317 319 319 323 324 324 324 323 327 325 327 336 329 322 323 322 319 318 319 319 320 320 319 319 317 316 316 318 318 318 318 318 318 316 317 317 315 317 318
310 310 310 310 309 309 310 310 309 309 309 309 309 309 309 309 309 308 308 308 309 309 309 309 310 310 310 309 309 312 316 318 320 317 314 314 314 314 314 314 315 314 314 316 316 316 316 315 314 317 318 319 322 321 324 326 322 323 323 326 330 325 321 322 320 318 319 319 319 320 319 318 318 316 316 317 317 316 316 317 317 317 316 315 316 314 315 317
312 311 310 310 310 309 310 310 310 309 309 310 310 311 311 310 310 310 310 310 311 311 311 311 312 311 312 311 311 315 316 315 316 317 315 314 314 315 314 314 315 314 314 316 316 315 316 315 315 318 318 318 320 318 321 321 319 322 323 322 323 321 319 318 317 317 317 317 318 319 319 318 317 317 317 315 316 315 315 316 316 316 315 314 314 315 317 320
314 313 312 311 311 310 310 311 311 311 311 311 311 311 311 311 311 311 312 312 312 312 312 313 312 312 313 313 315 319 318 316 316 318 318 316 315 316 314 314 314 313 315 316 316 315 317 316 315 318 317 317 319 318 318 317 318 321 322 323 322 321 320 319 318 317 317 317 318 318 318 318 318 318 317 316 316 315 315 315 315 314 312 313 314 316 318 320
315 314 313 313 312 312 311 311 312 311 311 312 312 312 312 312 312 312 312 313 313 313 313 313 312 312 313 314 319 323 321 318 316 317 320 318 315 315 314 314 314 314 315 316 315 315 317 317 316 317 316 316 317 317 317 316 318 318 318 321 320 320 319 318 317 316 316 316 316 317 317 317 318 318 317 317 316 315 315 314 315 314 313 314 314 315 317 319
316 316 315 314 314 313 312 312 312 312 312 312 312 312 313 313 313 313 313 314 314 313 313 313 312 311 311 314 319 322 321 319 318 318 319 317 315 314 314 314 314 314 315 316 315 314 316 318 318 316 316 317 317 316 316 315 318 317 316 317 316 317 316 316 316 315 315 315 314 315 315 315 317 317 317 317 317 316 315 314 315 315 315 315 314 315 316 318
316 316 316 315 314 313 313 312 312 313 313 313 314 314 315 314 315 315 315 315 315 315 315 313 312 311 311 315 320 322 320 320 321 321 318 315 314 313 314 315 315 315 315 316 315 314 315 317 317 317 317 317 316 316 317 315 316 317 315 316 316 316 315 314 315 314 314 314 313 313 313 314 315 316 317 317 316 315 315 314 314 314 316 316 316 317 315 315
316 316 315 314 314 313 313 313 313 313 314 315 315 316 317 316 317 317 317 317 317 317 317 314 311 311 313 317 322 322 320 319 320 320 318 315 314 314 314 316 316 315 315 316 316 315 316 316 315 317 317 316 315 315 316 314 314 315 315 316 316 316 315 314 314 314 313 313 314 314 313 313 314 316 316 316 316 315 315 314 314 314 314 316 316 316 316 315
317 316 315 314 314 313 313 314 314 315 316 317 318 318 318 319 319 319 319 319 319 317 315 314 310 310 315 319 321 319 318 318 318 317 316 315 315 315 315 317 318 316 316 316 316 316 316 316 316 317 316 315 315 315 315 314 313 315 314 315 316 315 315 314 314 314 313 313 315 314 314 315 315 316 317 315 315 315 315 315 315 314 314 315 315 316 318 314
317 316 316 314 313 313 313 314 316 317 318 319 319 320 319 320 320 320 320 318 317 315 313 312 310 310 316 319 318 315 315 318 318 317 316 317 317 316 316 317 317 316 316 316 315 315 314 315 316 317 316 315 316 314 314 313 313 315 314 314 316 315 316 315 313 315 313 313 316 314 316 321 319 316 317 316 314 314 316 316 316 315 314 313 314 317 318 312
317 317 316 314 313 313 313 315 317 319 319 320 320 320 320 320 320 319 318 316 315 313 312 311 310 313 317 319 316 313 315 317 318 318 317 317 316 315 315 316 317 316 315 316 315 314 314 315 314 315 315 316 316 315 315 314 314 314 313 316 316 316 320 318 314 316 315 313 315 314 316 321 321 317 317 317 316 315 316 317 316 315 313 314 315 316 314 311
316 316 315 315 314 313 314 317 319 320 320 321 321 321 321 320 318 317 315 315 313 312 311 311 312 316 318 317 315 313 315 316 317 317 317 316 316 316 315 315 316 315 315 315 314 314 314 314 314 316 316 316 315 314 316 317 318 315 314 322 321 317 320 319 315 317 316 314 313 314 317 319 318 316 317 317 317 316 316 316 315 314 313 313 313 312 311 310
316 316 315 315 314 314 316 319 320 320 321 321 321 321 320 318 315 314 314 313 312 312 314 314 314 317 317 315 314 314 314 315 316 317 316 316 316 317 315 315 315 314 315 314 313 314 313 313 315 316 316 316 315 315 318 321 322 319 316 321 322 318 318 318 318 319 317 316 313 313 317 318 317 318 318 317 316 315 316 315 313 313 313 312 311 311 310 310
316 316 315 314 314 316 318 320 320 321 321 321 321 320 319 317 314 313 312 311 313 315 317 317 315 314 314 313 314 315 315 315 316 317 316 315 317 316 314 314 313 313 313 312 312 313 312 313 314 314 314 315 316 316 320 322 323 324 320 319 321 319 317 318 321 320 317 316 315 314 314 315 316 318 317 316 315 315 314 313 313 313 312 311 311 310 309 308
316 316 315 314 315 318 320 321 321 322 322 321 321 320 320 317 314 314 313 311 313 315 315 315 314 316 317 315 314 316 316 315 316 316 314 315 316 315 314 313 312 312 312 312 313 312 312 314 314 316 315 314 315 314 318 322 320 323 323 320 321 320 318 319 320 319 318 317 317 317 316 314 315 315 315 315 314 313 314 313 313 313 312 311 311 310 308 306
316 316 315 315 317 319 321 322 322 322 321 321 321 320 320 318 315 314 314 315 318 321 320 317 317 320 320 318 316 316 315 314 315 314 312 314 315 314 313 312 312 313 313 315 316 313 313 316 315 316 317 315 315 314 316 318 317 319 320 319 320 319 319 319 318 319 318 317 318 318 317 316 316 317 316 315 314 314 314 314 313 313 312 311 310 308 307 306
316 316 315 317 319 320 321 322 322 322 321 322 321 322 323 323 324 320 317 318 321 322 321 317 316 318 318 318 317 315 314 313 314 315 312 312 314 314 313 312 314 313 314 320 320 314 314 317 318 318 318 316 315 314 313 313 315 315 316 318 319 319 319 318 317 319 318 317 319 319 317 317 316 317 316 314 314 314 313 313 313 313 311 310 309 307 306 305
316 316 317 318 320 321 322 321 322 322 322 321 322 323 322 322 326 324 321 322 319 316 318 316 314 316 316 317 315 314 316 315 314 315 313 311 312 314 314 313 315 315 316 320 320 315 313 318 319 317 317 316 315 314 313 314 315 315 317 319 320 320 319 317 317 317 315 316 320 320 317 316 316 315 315 314 314 313 313 313 313 311 310 308 307 306 305 305
316 316 318 320 321 322 321 321 322 322 322 322 322 322 317 315 317 316 318 324 322 317 318 318 316 317 317 317 316 315 318 318 316 315 313 312 312 314 315 314 315 318 317 316 317 316 315 318 318 315 314 315 315 315 315 317 317 318 319 320 321 322 321 321 319 317 315 315 320 321 317 316 317 316 315 313 313 312 312 312 311 309 308 307 306 305 304 304
316 317 320 322 321 321 321 321 322 322 323 322 320 319 316 314 313 311 314 320 322 320 319 321 320 320 321 319 315 315 318 319 319 319 314 312 313 315 315 314 315 318 317 316 318 318 319 320 317 314 314 315 315 316 317 317 318 320 321 320 322 321 320 322 322 319 316 315 318 319 317 318 317 316 314 311 311 311 310 309 308 308 307 305 305 304 304 303
317 317 320 322 321 320 321 321 323 323 323 321 319 318 317 314 312 312 316 320 322 322 320 319 319 321 320 316 314 316 319 319 319 318 314 312 314 315 315 314 315 316 316 316 317 318 319 320 317 315 315 317 316 317 318 318 321 325 324 321 323 321 318 320 320 318 317 320 320 316 321 327 323 319 316 311 311 310 308 308 307 306 306 305 304 303 303 303
319 319 320 322 321 320 321 322 323 324 324 322 319 318 317 315 312 312 317 323 325 324 320 317 319 319 314 313 315 316 317 317 316 314 312 312 314 315 316 315 315 317 318 317 317 318 317 318 319 318 318 319 318 319 320 320 322 327 327 323 322 321 320 322 322 321 321 324 322 314 323 333 328 323 321 312 311 311 308 307 306 305 305 304 304 303 302 302
321 321 321 321 320 321 321 323 323 323 323 322 320 319 317 316 315 313 317 325 329 327 322 318 318 316 311 312 313 315 318 317 312 311 312 312 312 314 316 316 317 318 319 319 320 321 318 318 321 322 322 320 320 323 324 321 319 323 325 323 322 321 320 322 321 321 323 325 321 314 319 326 322 321 320 314 311 310 308 307 306 305 304 303 303 302 302 301
322 322 322 321 320 321 322 324 324 323 324 323 321 319 318 318 316 314 321 331 331 327 321 316 315 314 312 310 310 315 322 318 310 310 311 311 311 311 314 318 318 317 318 319 324 325 319 318 320 321 322 320 320 323 324 323 322 325 324 320 321 319 317 319 315 317 323 321 321 319 315 318 318 318 317 316 314 311 308 307 306 305 304 303 302 302 301 301
321 322 323 322 321 322 322 323 324 324 324 324 321 321 321 320 316 316 326 335 331 322 317 313 312 312 310 308 309 314 316 314 313 312 309 310 311 311 315 318 317 317 318 320 326 327 318 318 323 324 322 321 324 326 325 324 324 326 322 316 317 315 315 318 315 319 322 317 322 326 316 316 323 324 317 316 316 312 309 308 306 305 304 302 302 301 301 300
322 322 323 323 322 322 322 322 322 324 324 323 322 323 321 319 318 320 328 333 329 319 314 312 310 311 311 309 310 312 309 310 314 312 309 310 310 310 313 314 313 314 315 318 324 325 318 316 321 326 324 323 326 327 326 324 320 321 319 317 321 319 316 317 315 319 318 316 324 327 318 317 327 332 320 315 319 315 310 308 305 304 303 302 301 301 300 300
323 323 323 323 322 322 321 321 321 323 323 322 323 322 320 319 321 327 331 331 329 321 313 312 313 312 311 311 311 311 310 311 312 311 311 311 310 311 311 310 311 315 321 323 323 321 316 312 314 319 321 322 325 322 320 321 318 317 317 321 326 324 321 320 320 320 316 321 329 325 321 318 324 335 324 315 320 315 309 307 304 303 302 301 300 299 299 299
324 323 323 322 322 322 321 321 322 322 322 322 322 321 321 324 326 332 332 325 325 323 314 314 315 312 312 315 315 312 311 312 312 312 313 313 312 311 311 313 315 321 326 326 323 319 316 314 316 319 318 317 320 318 317 319 318 317 319 324 328 328 326 323 322 320 318 328 333 323 322 319 320 333 326 314 315 312 309 307 304 303 302 301 300 299 298 298
322 322 322 321 321 321 321 322 322 322 322 321 320 321 326 328 328 331 330 324 326 326 318 317 317 313 315 319 320 316 313 313 312 313 316 317 317 315 317 323 323 323 327 328 326 322 320 319 318 319 316 314 318 318 318 320 320 319 320 323 328 328 328 326 325 324 322 329 329 321 323 322 321 327 320 312 311 309 308 306 303 302 301 300 299 298 298 297
319 320 320 319 320 320 321 322 321 321 321 320 321 324 326 326 327 329 329 328 329 325 320 320 319 319 320 320 322 320 317 316 312 312 317 318 318 318 320 325 324 322 325 326 326 326 327 324 317 316 317 317 317 317 320 322 319 317 318 322 328 327 326 327 327 325 324 326 326 322 322 323 325 323 312 307 306 304 305 303 302 302 300 300 299 298 298 297
317 317 317 318 318 319 321 321 321 321 319 320 324 325 323 324 326 327 327 328 327 323 322 322 319 320 321 321 324 322 320 320 314 312 317 317 317 320 321 320 318 320 322 322 323 325 328 328 323 320 320 319 315 315 326 330 319 316 320 324 328 329 327 326 325 325 326 328 329 323 322 327 330 319 306 303 303 301 302 301 301 301 300 300 299 299 299 297
316 316 317 317 317 319 319 320 321 320 319 321 325 323 321 324 326 327 329 328 325 323 322 322 320 319 322 324 325 323 321 323 318 315 319 320 322 327 327 322 318 320 322 322 324 324 322 327 328 321 317 317 316 316 325 330 321 315 317 320 324 327 327 323 324 326 325 327 328 325 325 326 319 309 304 303 303 302 302 301 301 301 300 300 299 299 298 298
315 315 317 317 317 318 318 319 320 318 319 323 324 321 320 322 325 328 329 326 324 324 322 324 325 323 325 327 327 324 322 323 321 319 321 321 323 327 328 326 321 318 319 322 326 323 321 327 325 316 314 316 316 318 319 321 322 317 315 322 324 323 323 323 323 323 321 322 323 323 325 321 313 309 305 303 303 302 302 301 301 301 300 300 300 299 298 298
313 313 313 314 316 318 317 319 318 316 320 324 323 321 320 321 324 325 325 322 322 324 324 326 327 325 327 328 328 326 324 324 323 321 324 323 322 323 323 322 320 317 316 319 323 323 322 326 324 318 319 317 314 319 319 316 319 319 319 324 322 318 321 324 324 323 322 323 321 321 323 320 318 315 306 304 305 303 301 301 301 300 300 300 300 298 298 297
310 309 311 312 314 317 316 318 317 316 321 323 320 320 322 323 322 321 322 321 321 325 326 327 326 325 326 328 329 327 324 325 324 322 326 325 321 322 322 320 319 317 316 316 320 324 322 324 324 321 321 319 314 318 321 315 314 318 320 319 318 319 322 322 322 323 323 321 321 323 322 319 321 318 308 306 307 303 302 302 301 300 300 300 300 298 297 296
307 311 314 313 312 314 315 317 316 316 321 322 319 321 322 322 321 320 322 321 322 325 327 327 325 324 326 326 328 327 323 325 325 322 324 323 321 322 321 321 320 317 317 318 320 324 322 322 324 320 318 319 316 318 324 321 314 315 316 315 317 321 322 320 320 323 322 319 318 321 319 318 321 319 312 308 305 302 302 301 300 301 300 299 299 298 297 297
307 314 316 311 309 311 313 315 316 317 322 322 321 322 322 321 321 321 321 320 321 323 325 326 326 325 325 325 326 325 322 324 324 322 323 322 321 322 321 321 321 318 319 322 322 322 320 320 324 321 316 318 320 320 324 324 319 316 316 316 315 316 319 319 318 321 322 319 319 319 318 319 318 313 310 308 304 302 302 301 301 301 299 298 298 298 298 298
307 313 314 310 310 311 313 316 318 319 321 322 321 321 321 321 322 322 320 319 320 321 321 324 326 325 324 324 324 324 322 323 322 321 322 321 321 321 318 316 318 317 320 324 322 319 319 321 324 322 317 320 325 321 320 323 323 322 320 319 318 316 318 318 317 319 320 318 318 318 318 319 314 308 307 306 303 302 302 303 303 301 299 298 298 298 298 298
307 311 312 311 311 312 315 318 319 319 321 320 320 320 319 320 322 321 320 319 320 320 319 320 323 322 322 323 322 322 322 321 321 322 322 321 323 322 316 314 316 318 321 323 320 316 318 320 322 322 319 321 323 319 318 323 326 324 321 320 321 320 318 318 317 318 317 317 319 319 319 318 312 308 307 304 303 303 303 303 303 302 301 300 299 299 298 298
307 310 311 311 312 312 315 317 317 318 319 318 318 318 318 320 320 320 320 320 320 320 317 318 319 320 320 321 319 319 320 319 319 320 320 321 320 318 316 316 317 319 320 320 318 317 318 318 318 320 321 320 319 317 318 321 321 319 318 318 319 318 317 317 316 317 317 317 318 318 319 318 312 310 309 305 304 305 303 303 303 302 301 300 299 298 297 296
307 308 310 310 311 312 314 315 315 317 317 316 316 316 316 318 319 319 320 319 320 320 318 318 319 318 319 319 318 318 319 319 318 318 320 322 318 313 313 316 317 317 317 318 318 319 319 317 316 318 320 318 317 317 318 319 318 318 318 317 316 316 315 314 314 315 316 315 316 316 317 317 312 309 308 307 306 306 303 302 302 302 301 299 298 297 296 295
306 308 310 309 309 311 313 312 312 314 315 314 315 315 315 316 318 319 319 318 319 320 319 319 319 318 318 318 318 318 318 318 318 317 319 320 316 312 311 313 315 316 315 314 316 318 318 316 315 317 318 316 316 316 315 316 316 317 317 317 316 315 315 313 313 314 314 314 314 314 315 316 312 308 307 307 307 307 306 304 303 302 301 299 298 297 296 296
306 308 309 310 309 310 312 311 311 313 313 313 314 314 314 315 315 317 318 318 318 318 317 317 317 317 318 318 318 318 318 317 316 316 319 318 315 312 310 311 313 315 313 311 314 318 317 314 314 316 316 315 314 313 313 312 313 313 314 314 313 312 312 311 312 312 312 312 311 311 312 312 311 310 309 309 309 307 307 305 303 302 300 299 298 297 297 297
303 306 309 311 311 311 311 312 312 312 313 313 313 313 313 313 313 314 316 317 317 317 315 315 316 316 317 317 317 318 318 317 316 317 318 317 314 311 309 309 310 310 311 310 312 315 313 312 314 314 314 313 312 311 310 309 310 311 311 311 310 309 308 309 309 309 310 310 309 309 309 309 309 309 309 310 310 309 308 307 304 302 301 299 298 298 298 297
302 304 306 307 310 311 311 312 312 312 312 313 313 313 314 314 312 313 316 316 316 315 315 315 315 316 318 317 316 317 316 315 316 316 316 316 313 310 309 309 307 308 310 310 311 313 313 312 313 311 310 311 309 308 307 306 306 308 309 309 309 308 307 307 307 307 308 309 308 307 307 307 307 307 307 308 309 309 308 307 305 302 299 298 298 298 298 297
301 302 302 303 307 309 310 311 311 312 312 311 312 313 313 313 312 313 315 316 315 314 314 314 314 315 317 316 315 316 315 314 314 314 314 313 312 311 310 310 307 306 308 308 309 311 311 311 309 307 307 308 306 305 305 305 306 306 306 307 306 305 305 305 305 306 307 307 307 307 307 307 305 305 306 306 305 303 301 301 301 300 298 298 298 297 297 297
299 300 301 303 305 306 308 310 310 311 311 311 311 311 311 311 312 313 314 314 315 314 313 313 314 315 315 314 314 314 314 313 313 312 311 311 311 310 311 311 307 304 305 307 306 307 308 308 306 306 308 308 306 305 305 306 307 306 306 305 304 304 304 304 304 304 304 304 305 305 305 304 304 304 304 302 301 299 297 297 298 297 297 297 296 296 296 296
297 298 299 301 304 306 307 308 310 310 311 310 310 310 309 310 311 312 312 312 313 314 313 313 313 312 311 311 313 313 311 310 310 309 308 309 310 309 309 309 307 306 306 305 305 306 308 307 305 306 307 307 304 304 305 306 305 305 304 303 302 302 302 302 302 302 302 302 302 303 303 302 303 305 302 299 298 297 296 295 295 294 295 296 295 295 295 294
296 297 297 298 302 305 306 308 309 310 310 310 309 309 309 309 310 310 310 309 309 310 312 312 311 310 310 310 311 310 308 307 307 305 305 306 305 305 306 307 306 307 306 304 304 307 308 307 307 306 305 303 302 302 303 303 302 301 301 300 300 300 300 300 301 301 301 301 301 302 302 301 303 305 302 297 296 295 295 294 293 293 294 294 294 295 295 294
Wind_Speed
4 4 4 4 4 4 4 4 4 4 5 5 5 5 5 5 6 6 6 6 7 8 8 9 9 10 11 11 13 14 16 17 16 12 10 11 8 6 7 6 3 3 4 6 6 5 3 3 5 5 3 1 1 0 1 0 2 4 3 2 1 3 3 4 2 3 1 3 5 4 0 4 2 4 2 3 3 3 7 7 5 5 7 12 19 16 7 12
4 4 5 4 4 4 4 5 5 5 5 5 5 5 5 5 6 6 6 6 6 7 8 9 9 10 10 11 12 14 17 18 15 12 11 8 4 4 4 3 2 3 6 9 8 7 5 3 6 6 4 1 1 1 1 1 2 3 3 2 3 5 5 4 4 5 2 4 6 4 3 4 2 4 1 2 6 5 7 10 6 7 9 14 18 8 7 14
4 5 5 4 4 5 5 5 5 6 6 6 6 6 6 6 6 7 7 7 7 7 8 9 9 9 10 10 11 12 16 15 10 8 4 3 4 2 1 2 1 3 5 9 7 7 6 4 5 6 3 0 2 1 1 1 0 2 3 2 6 6 5 7 6 6 5 4 5 5 4 4 5 4 0 3 8 7 7 8 7 11 10 9 10 3 10 15
6 5 6 5 4 5 6 6 6 6 7 7 6 6 7 7 7 8 8 7 7 8 8 9 9 9 8 9 9 11 12 8 4 3 3 8 6 4 2 1 1 3 7 7 5 6 7 6 3 6 3 1 3 2 2 3 2 1 4 5 7 4 4 8 7 8 8 5 5 5 5 7 6 2 2 4 6 7 7 7 9 14 14 9 8 5 8 12
7 7 7 6 5 5 6 7 7 7 8 7 7 7 7 8 8 9 9 8 8 8 8 8 9 8 7 7 7 8 7 5 2 3 5 6 5 4 2 2 2 4 8 6 3 4 5 4 2 3 2 1 3 2 3 6 4 2 4 7 7 4 5 7 6 7 6 6 6 6 6 6 4 3 4 4 7 9 7 8 11 14 14 10 9 8 6 9
8 8 7 7 6 6 6 7 7 7 8 8 7 8 8 8 9 9 10 9 9 9 9 9 8 8 7 6 5 4 2 0 3 2 4 4 3 2 1 1 1 5 9 6 2 2 1 2 3 2 1 1 2 2 6 5 5 3 5 5 7 7 6 6 5 6 6 6 7 5 4 3 4 7 6 5 11 12 10 10 11 13 15 13 9 8 8 8
10 10 8 7 7 7 7 6 7 7 8 8 8 8 8 9 10 10 10 10 10 10 9 9 8 8 6 4 3 2 1 4 8 7 8 8 5 3 1 1 2 7 10 6 3 2 2 1 0 3 2 2 4 5 6 4 4 6 5 5 7 8 6 6 6 7 7 6 8 4 5 4 4 7 4 7 15 14 13 12 11 13 15 14 9 8 9 10
12 11 8 8 8 8 7 7 7 7 8 8 9 9 9 10 11 11 11 12 12 11 11 9 8 6 5 2 1 3 1 8 12 10 11 10 7 4 3 3 3 8 9 7 6 3 3 2 3 3 1 3 3 4 5 5 1 5 5 4 3 4 5 7 7 7 8 7 7 6 9 9 8 5 5 13 18 16 15 11 10 12 12 12 10 11 10 10
12 10 9 9 9 8 7 7 7 7 8 9 9 10 10 11 11 12 12 12 12 12 12 9 7 5 3 1 3 2 4 8 11 10 9 8 7 5 4 3 5 9 8 7 8 4 2 3 5 4 2 3 2 4 3 3 3 4 2 3 3 5 6 7 7 9 10 8 6 6 12 12 7 3 7 14 16 17 13 8 9 10 11 11 10 11 10 9
12 10 9 10 9 8 7 6 6 6 8 8 9 10 11 11 11 12 12 13 13 13 12 9 7 3 2 1 4 1 6 6 8 8 7 6 5 4 5 4 5 9 7 5 6 5 3 3 4 4 3 2 2 4 3 0 4 2 4 5 5 6 7 5 8 13 11 8 9 8 13 14 4 2 6 11 13 14 12 10 8 7 10 11 9 9 8 7
11 10 10 10 9 7 6 6 6 6 7 8 9 10 10 11 11 12 12 13 13 12 11 8 5 3 3 4 4 4 5 5 7 5 4 4 3 4 6 4 3 7 7 4 4 3 1 2 1 2 2 1 1 5 5 3 3 2 4 7 8 7 10 9 9 14 9 6 8 9 11 12 2 4 9 14 14 12 11 13 11 7 9 9 9 8 5 5
11 11 10 10 8 6 5 6 6 6 7 8 9 9 10 11 11 12 12 12 12 11 10 7 4 4 4 3 5 9 6 5 6 3 2 2 3 4 5 5 4 6 7 4 1 3 3 1 4 3 2 1 1 4 3 3 3 3 3 5 9 7 9 13 10 12 7 4 5 7 4 8 3 8 13 14 12 11 11 12 12 9 7 6 6 6 6 7
11 10 10 9 7 6 5 5 6 6 7 8 9 10 10 11 12 12 12 11 11 10 8 5 4 7 4 1 6 11 12 11 7 4 3 3 3 3 5 7 6 6 7 4 1 4 4 3 5 3 2 1 1 2 0 1 3 5 3 0 6 6 7 13 7 7 6 4 5 8 2 7 7 11 13 12 9 7 9 10 10 9 6 4 5 6 6 8
11 11 10 8 6 5 5 5 5 6 7 8 9 10 11 12 12 12 11 10 10 9 6 2 6 8 4 3 5 6 12 13 10 7 6 5 3 3 6 8 8 6 5 3 1 2 3 4 5 2 0 2 2 4 4 4 3 4 3 0 3 2 6 11 6 5 4 3 3 8 4 6 8 10 11 11 8 6 9 10 12 11 7 6 5 6 5 10
12 10 9 7 6 5 5 5 5 6 8 9 10 10 12 12 11 10 9 9 7 5 2 4 8 7 1 5 6 4 7 8 8 8 6 5 4 2 4 6 7 6 4 3 1 1 2 4 4 2 2 2 0 3 4 4 3 2 1 3 3 3 5 10 9 6 4 3 1 5 4 6 8 11 11 10 8 8 9 12 14 10 7 7 6 5 8 9
12 9 8 7 5 5 4 4 5 7 8 9 10 11 12 11 8 7 7 6 3 2 4 4 7 5 1 3 2 1 5 5 7 8 6 6 4 3 5 5 4 4 3 1 1 0 2 4 2 2 1 2 1 2 3 4 4 2 2 4 4 4 4 6 8 4 4 3 2 2 3 4 6 9 10 10 8 8 10 13 13 10 8 7 6 8 9 8
10 8 8 6 4 4 3 4 5 6 8 9 10 11 11 9 6 4 5 2 3 5 5 2 3 2 2 2 1 2 4 5 8 9 7 7 6 6 8 5 3 4 3 2 2 1 2 2 0 1 1 1 2 4 4 3 4 3 2 4 4 5 4 3 6 5 3 3 2 4 4 6 7 8 10 12 10 9 11 12 11 9 6 7 9 10 9 10
7 7 7 4 3 2 2 4 5 6 8 9 11 12 10 7 5 2 1 2 4 4 3 1 2 1 2 2 2 2 3 5 8 7 7 8 8 9 7 3 4 5 4 3 2 2 1 1 1 1 1 1 3 4 2 5 5 4 4 4 4 5 4 5 5 4 2 2 4 6 7 9 9 9 10 13 12 10 9 9 8 6 5 9 9 10 10 11
7 6 5 4 3 2 2 3 4 6 9 9 10 10 7 4 3 3 1 1 2 1 0 2 3 2 2 3 3 3 5 6 7 4 6 8 9 9 5 2 5 5 4 1 2 2 2 2 3 1 3 4 5 7 9 9 7 7 7 5 5 5 5 6 6 5 5 5 6 9 9 8 7 9 10 13 11 7 6 7 6 4 8 9 9 10 10 11
6 5 5 4 3 2 2 3 5 7 8 10 11 8 3 2 2 1 1 2 4 5 3 4 6 3 4 2 4 6 6 6 4 2 7 8 7 7 2 1 4 2 2 4 2 2 4 3 2 4 7 8 10 11 11 10 8 7 7 6 6 5 5 6 6 6 5 4 6 7 6 7 7 9 13 14 11 9 8 6 4 8 9 8 10 9 10 10
7 6 5 4 4 3 3 3 5 6 7 9 10 5 1 1 1 1 2 3 8 12 9 8 10 9 9 5 8 9 5 2 1 3 8 8 7 6 1 1 4 1 3 4 2 0 3 4 6 9 11 11 11 10 8 7 7 7 6 5 5 5 5 6 5 7 5 2 5 5 6 8 9 11 16 15 9 9 7 4 8 11 10 8 9 9 9 8
8 7 5 5 5 4 3 4 5 5 5 5 6 3 2 2 1 1 1 3 7 11 11 12 12 11 13 9 7 8 4 1 2 3 8 8 6 4 2 3 5 4 3 3 2 1 2 4 10 12 10 9 8 7 7 8 7 6 4 4 5 4 4 5 5 6 5 2 5 6 6 7 9 12 16 11 5 6 8 10 9 10 11 9 8 8 8 8
8 7 6 6 4 3 4 4 5 5 3 2 4 3 2 2 1 1 1 1 6 7 6 8 9 9 10 7 6 7 4 4 4 4 9 10 4 4 4 5 6 5 3 4 5 5 4 6 12 12 8 7 8 8 7 7 5 4 4 4 5 4 2 4 5 6 5 2 3 4 5 5 7 10 8 8 8 10 11 12 11 10 11 10 8 8 8 9
6 6 8 7 4 4 4 5 5 3 1 1 2 2 3 2 1 1 1 1 4 5 4 5 5 4 4 2 4 5 3 3 2 4 10 11 4 3 4 6 7 5 5 7 8 8 6 7 8 7 6 8 9 9 7 5 4 3 4 4 4 3 3 4 3 5 5 4 2 3 5 4 6 8 2 6 7 9 9 10 12 10 9 9 9 9 9 9
5 6 8 8 5 2 4 7 3 1 0 1 1 1 3 1 2 1 1 1 3 4 3 1 0 1 2 3 3 4 2 1 1 2 8 8 4 3 2 3 5 5 6 7 7 7 8 7 5 5 6 7 7 7 6 4 2 4 4 5 5 4 3 2 3 4 5 4 3 5 5 5 4 6 2 4 6 8 7 8 11 8 7 8 9 9 8 9
7 6 6 6 5 2 4 4 0 2 1 2 3 1 1 1 1 0 2 1 4 3 0 1 0 1 2 1 1 3 3 1 2 1 4 3 0 2 2 2 1 4 6 5 3 2 4 3 2 4 5 4 4 4 5 5 2 3 4 5 6 5 2 1 3 4 2 3 4 3 0 6 4 7 7 4 8 6 6 8 8 6 7 7 7 7 7 8
10 9 8 7 7 5 3 2 3 2 1 2 4 2 1 2 1 0 2 1 3 1 3 0 1 2 2 1 1 4 2 2 1 2 3 3 2 2 1 2 1 2 2 2 1 3 3 2 3 4 3 3 2 4 5 6 5 4 5 5 5 3 0 1 2 0 3 3 5 2 3 4 3 6 7 6 9 5 6 6 5 6 6 7 7 7 7 7
14 13 12 11 11 11 7 4 2 2 2 3 3 1 2 1 0 1 2 1 2 2 2 1 1 2 1 1 2 4 2 1 3 1 2 3 1 3 1 3 2 3 2 5 2 5 1 3 4 5 4 3 4 6 5 7 4 5 5 4 3 2 2 2 2 2 3 1 5 5 3 2 4 5 2 6 7 3 4 5 4 5 5 7 7 7 7 7
17 17 16 14 13 14 12 9 6 5 4 3 2 2 3 1 2 3 1 3 1 2 1 0 2 1 1 2 1 2 1 1 2 2 2 2 1 3 1 3 1 2 3 4 4 5 1 3 6 6 5 5 6 4 3 6 4 4 4 2 3 1 1 1 3 2 1 1 5 6 3 2 5 5 1 4 3 4 4 4 4 5 5 6 6 7 7 6
21 21 20 16 14 14 12 11 13 12 8 5 3 3 1 3 2 2 3 4 1 2 0 1 1 1 3 3 1 2 2 1 1 1 2 1 2 3 0 1 3 2 3 3 2 4 2 2 2 3 4 5 4 1 2 4 4 3 4 4 5 4 3 3 2 3 3 2 6 7 6 6 3 5 2 2 3 8 8 5 5 5 5 6 5 6 6 5
22 22 21 18 18 16 9 7 13 16 14 11 5 2 3 2 1 3 5 2 2 1 1 1 1 2 4 4 2 3 3 2 2 3 1 1 3 3 1 1 2 3 3 4 4 4 3 2 2 2 2 3 4 2 3 3 2 4 4 4 3 4 4 4 4 3 2 4 7 5 4 7 4 5 4 3 1 8 10 8 9 7 6 5 5 5 5 4
21 20 18 18 19 17 11 5 6 10 13 11 6 3 3 1 2 4 2 0 1 2 3 2 2 3 4 3 3 3 3 2 3 3 3 3 2 2 2 3 3 2 2 2 2 3 2 3 4 3 2 3 5 1 3 5 5 5 5 5 3 2 3 2 2 0 2 6 5 1 3 3 6 5 2 3 6 4 5 7 9 9 7 6 5 5 4 4
16 16 15 15 16 16 14 9 4 6 10 11 6 1 3 2 4 3 2 2 1 0 2 2 1 3 3 3 2 2 2 2 3 2 2 4 3 3 4 4 6 3 2 4 1 2 3 4 2 1 3 2 7 4 2 2 1 4 4 4 4 2 0 3 3 2 3 5 5 1 3 1 4 3 3 5 6 5 8 9 8 8 7 6 5 5 4 4
9 10 11 14 15 14 15 12 6 8 15 12 4 3 2 3 3 2 4 3 0 1 2 2 1 2 2 2 3 4 2 2 4 3 1 3 2 3 4 5 6 3 2 2 1 2 2 5 3 5 2 3 7 7 6 5 3 4 4 5 4 3 3 4 3 3 3 4 4 3 2 2 3 1 3 5 6 7 9 9 8 7 6 5 4 4 4 5
6 7 7 11 12 10 11 10 7 11 15 8 3 2 4 4 1 2 4 2 1 1 1 1 2 2 1 2 3 3 1 2 4 4 2 3 3 4 3 4 7 5 3 3 2 2 3 5 6 3 1 6 7 4 5 7 2 2 2 4 2 4 4 2 3 4 3 3 4 3 3 2 3 2 3 5 7 8 8 7 8 7 5 5 4 4 4 4
5 5 5 6 8 7 8 7 10 15 12 5 3 4 5 3 2 2 2 2 3 4 3 1 2 2 3 2 2 3 1 0 3 3 1 3 3 5 5 4 7 8 6 4 2 2 2 4 4 2 1 5 6 3 3 3 1 1 2 2 4 4 5 2 3 1 3 2 4 1 2 2 2 2 2 5 7 7 6 6 6 5 5 5 4 3 3 3
4 2 3 5 8 9 8 7 11 13 7 4 4 6 3 3 3 3 1 0 1 4 5 2 1 3 4 2 3 4 1 1 2 2 1 3 3 4 6 3 3 9 10 5 2 3 3 3 4 1 1 5 3 3 2 3 2 4 2 4 3 1 3 3 1 3 2 3 4 1 4 4 2 2 0 3 5 5 4 5 5 5 5 4 4 4 3 3
3 2 2 7 12 12 9 9 12 8 2 3 7 7 3 3 4 3 2 2 1 3 3 3 3 3 4 3 3 3 3 2 3 3 1 2 3 3 5 2 1 3 7 5 1 2 3 1 6 2 4 3 3 4 2 5 2 4 3 3 2 1 1 1 2 1 2 4 4 4 5 4 4 4 4 6 6 7 6 5 5 5 5 5 5 4 4 4
4 3 2 6 12 14 12 12 12 5 1 5 8 6 4 4 4 5 4 3 2 2 2 4 2 2 3 3 3 2 3 3 4 3 1 2 4 0 3 2 1 2 1 5 4 2 3 2 4 3 1 1 3 3 2 4 3 3 1 1 2 3 3 2 2 3 3 3 4 5 6 4 4 4 8 11 11 11 10 7 6 7 6 6 5 5 4 4
4 2 2 3 10 14 15 13 7 3 4 6 6 4 2 3 4 5 5 4 2 1 3 5 4 4 4 4 3 2 2 3 4 3 2 3 3 1 2 1 1 1 3 4 4 0 2 2 3 4 3 1 1 2 5 5 2 1 0 1 2 2 1 1 2 3 3 3 4 5 7 5 3 1 6 11 10 9 9 8 7 7 7 6 5 5 5 4
4 1 2 5 12 17 17 10 4 3 4 6 5 3 1 2 3 4 3 3 2 0 1 4 5 5 4 4 4 3 3 4 4 3 3 3 3 2 1 1 1 1 2 5 3 1 1 2 3 2 2 2 4 4 5 6 5 5 3 3 4 3 1 2 4 2 3 3 3 5 7 5 2 2 2 6 8 8 9 10 9 7 8 7 6 6 5 4
2 1 2 9 16 19 14 6 4 4 4 5 4 3 2 2 2 3 3 2 1 1 0 1 3 3 3 3 2 2 3 3 3 3 3 4 3 2 1 0 1 0 3 3 1 1 2 3 2 3 3 5 6 2 2 5 6 5 2 2 3 3 3 3 5 2 1 2 1 2 6 3 1 3 2 4 8 8 9 9 8 7 7 7 6 6 5 5
2 2 3 11 19 17 8 4 4 4 5 3 2 3 3 2 2 4 5 2 1 2 1 2 3 3 3 3 1 2 2 2 4 5 3 4 3 1 2 3 2 2 3 2 1 1 3 3 1 3 3 3 3 4 5 4 5 2 2 0 3 3 3 3 4 1 1 3 3 3 5 2 1 3 3 3 4 5 6 7 7 6 5 5 6 6 5 5
2 1 1 9 18 15 6 5 6 6 7 3 2 4 3 2 4 5 5 5 4 4 3 3 4 4 4 4 4 5 4 3 5 6 4 4 2 1 5 4 1 2 1 1 2 1 1 2 2 0 3 5 4 3 4 4 3 2 2 1 1 2 2 2 1 1 2 5 7 6 4 2 1 2 3 2 2 4 6 6 6 6 6 6 6 5 6 6
1 2 0 5 13 11 4 2 3 4 7 7 6 7 4 3 5 6 6 5 4 4 3 2 4 5 4 4 4 6 6 5 4 2 1 1 0 2 4 4 3 3 1 1 2 3 2 2 3 3 5 7 5 3 2 1 1 0 1 2 2 2 3 2 0 2 3 3 3 4 3 2 3 2 1 3 4 5 6 5 5 6 6 7 6 5 5 5
1 3 2 3 6 6 3 1 1 1 4 6 6 7 8 7 4 4 7 5 4 5 3 2 3 4 4 4 5 5 6 4 2 2 2 1 1 2 3 4 4 3 2 1 4 4 3 1 3 5 6 7 5 4 3 3 1 3 4 5 5 5 4 3 2 4 3 1 3 7 6 5 7 6 5 6 6 7 7 6 5 5 6 6 6 6 5 5
1 2 3 4 3 5 5 3 3 3 2 4 4 5 8 10 6 4 6 5 5 6 4 3 4 5 5 6 5 4 4 3 3 3 3 3 1 2 3 4 4 2 1 2 3 4 4 1 3 5 6 6 3 3 1 3 3 5 6 8 10 9 6 6 6 5 2 1 8 10 7 6 9 10 7 7 7 7 8 8 7 7 7 7 6 6 6 6
2 1 2 2 2 5 7 6 6 7 6 4 3 2 5 9 8 6 5 3 3 5 4 4 6 8 7 7 5 4 4 4 4 4 3 3 3 1 3 3 2 2 3 3 3 4 4 3 4 3 5 7 4 4 3 1 3 6 6 8 11 12 11 8 7 6 5 6 11 11 9 8 10 11 8 6 6 8 8 8 7 7 7 7 7 7 7 6
2 1 3 2 0 3 5 7 8 10 10 7 4 4 3 5 7 6 2 2 2 4 5 5 6 7 7 6 5 4 4 5 4 4 3 3 3 3 1 1 2 3 5 3 2 3 4 2 2 1 3 7 6 4 2 2 3 5 7 10 12 14 12 8 8 10 9 9 11 10 11 13 12 10 8 6 5 5 4 2 4 7 7 7 7 7 7 6
1 1 1 2 2 1 1 4 8 9 8 8 8 6 3 3 5 3 1 4 4 3 4 6 6 5 6 7 7 5 5 6 5 4 4 4 3 2 2 2 1 1 3 2 1 2 2 1 0 3 1 6 5 1 2 3 4 6 9 13 14 13 10 9 11 10 7 9 12 11 11 13 11 6 4 3 2 3 4 4 5 6 6 7 7 6 6 5
3 2 2 2 2 2 1 2 6 7 6 7 9 7 5 7 7 3 1 2 5 4 5 8 7 4 3 5 7 6 6 7 7 6 6 6 5 3 2 2 4 4 2 1 0 1 2 1 1 4 1 6 3 3 3 4 3 7 13 17 17 12 10 10 9 7 8 11 11 9 9 10 8 3 1 1 4 5 5 5 5 4 5 7 7 6 6 6
4 3 3 3 1 2 2 2 4 6 5 6 8 8 7 7 6 4 3 2 3 1 3 9 10 5 3 5 6 7 7 7 7 6 5 5 3 3 3 3 5 5 4 3 1 1 3 3 1 3 2 6 2 4 3 0 2 7 11 13 14 12 10 9 7 9 12 10 8 8 9 8 5 4 4 2 4 5 5 5 4 4 5 5 6 6 7 7
Wind_Direction
313 314 315 313 305 298 295 298 303 306 307 304 304 310 312 316 316 317 320 324 326 326 327 328 331 334 334 336 333 329 327 323 319 309 279 288 291 265 290 297 282 264 201 174 159 159 161 192 224 191 134 18 65 124 319 312 76 58 82 112 243 224 215 214 241 308 237 280 299 281 109 87 329 315 339 326 333 289 285 282 254 254 257 249 260 271 240 188
314 319 317 314 311 309 297 293 299 299 300 297 297 297 298 307 306 308 309 311 316 316 320 323 327 331 332 335 332 331 327 322 317 298 283 293 286 251 279 291 262 226 188 172 177 183 171 209 221 174 107 33 282 46 345 296 95 101 131 157 228 213 228 252 283 314 327 292 299 309 13 47 316 292 355 275 285 293 286 284 283 276 267 265 273 277 206 195
315 323 326 322 321 329 319 306 305 300 302 301 297 293 294 298 297 300 301 304 309 310 315 318 323 327 331 332 331 334 327 325 320 296 312 92 133 180 242 248 205 197 187 171 183 206 209 246 208 167 107 308 253 95 95 294 234 176 142 184 242 225 258 289 294 307 307 297 317 321 350 351 293 285 339 251 276 281 260 266 285 282 271 264 280 259 193 197
321 323 328 331 331 335 330 322 314 307 307 305 305 303 302 302 301 302 302 307 311 311 314 314 320 324 329 331 330 332 330 335 317 272 104 112 123 123 133 120 108 161 175 170 191 227 250 286 199 160 119 260 286 78 153 223 207 180 147 192 234 227 266 275 283 303 309 328 341 317 334 323 289 292 300 276 285 279 252 240 250 268 272 256 266 270 191 190
326 324 328 331 333 335 332 327 319 313 310 312 316 313 313 313 310 310 310 315 318 318 317 315 320 323 331 334 328 329 346 11 282 218 141 133 129 134 108 76 99 168 175 179 209 221 261 306 63 90 82 243 308 39 223 218 171 189 201 207 225 230 264 270 283 300 306 325 325 321 319 296 300 316 280 271 270 262 256 242 235 252 266 260 263 276 227 198
331 327 330 328 329 328 326 328 321 316 315 317 320 319 322 320 315 316 316 319 321 320 320 319 321 326 334 336 330 335 15 358 252 217 184 189 170 177 70 79 177 180 179 183 220 212 251 332 52 67 97 219 252 221 246 235 156 214 256 226 227 232 244 266 289 296 306 305 289 290 279 274 336 304 263 245 255 256 260 250 244 253 263 268 269 270 260 239
336 332 331 331 328 324 322 326 320 316 319 320 323 324 325 321 319 318 319 320 319 318 318 319 320 321 333 337 327 1 88 243 262 271 258 239 221 243 293 274 225 184 184 179 203 207 166 105 144 180 156 258 228 216 256 282 170 205 263 252 240 242 245 276 298 304 308 277 257 277 307 297 282 284 288 266 265 266 266 259 255 261 268 276 273 259 256 255
334 329 331 335 330 325 324 322 318 318 319 322 325 324 324 322 320 319 320 319 316 317 315 317 321 322 336 360 330 349 299 250 264 274 265 239 230 261 274 261 206 189 189 186 203 199 156 177 216 200 194 255 236 240 283 338 261 220 252 255 262 275 281 302 305 299 298 274 267 298 297 273 242 263 298 274 276 277 269 267 266 268 275 276 270 263 256 254
328 322 328 333 326 323 321 317 317 319 321 325 324 323 323 321 319 318 317 315 314 312 311 315 317 311 309 17 86 340 261 250 264 266 252 230 233 252 242 230 197 193 192 201 218 215 177 202 223 203 187 238 266 283 313 21 277 257 293 301 318 304 295 306 301 289 287 279 277 284 279 270 242 254 282 265 268 276 278 280 268 271 276 270 265 261 254 253
320 314 320 324 321 317 314 312 312 318 322 321 321 320 318 316 314 314 312 311 310 308 308 311 309 289 244 153 105 260 262 258 269 257 232 219 226 218 200 195 187 197 199 211 232 239 220 209 225 189 173 245 277 287 330 74 248 303 357 328 303 297 297 296 293 285 282 276 264 250 265 272 244 189 268 265 262 273 291 294 275 264 265 265 262 257 257 256
312 310 313 316 314 310 311 311 307 313 316 315 317 316 314 313 310 309 308 306 306 306 306 306 299 248 183 144 146 228 258 260 266 257 224 205 188 176 179 182 182 201 206 225 257 283 276 195 120 122 180 331 322 309 314 274 283 336 3 335 309 316 309 289 281 279 277 274 246 210 250 277 265 186 245 262 270 283 295 294 289 273 259 262 264 273 290 279
304 305 308 311 307 305 310 312 314 317 317 317 316 315 314 312 308 307 306 306 307 306 303 303 277 203 161 133 214 233 238 247 255 248 206 179 166 168 177 185 189 202 211 225 269 36 43 91 82 99 234 11 355 316 293 265 338 327 4 336 305 335 312 283 271 265 259 256 218 163 252 287 239 226 243 256 272 290 294 289 290 283 266 273 294 310 308 301
294 298 304 305 300 302 305 311 320 323 323 323 319 320 317 313 312 310 307 308 308 306 305 297 221 180 155 215 240 238 240 242 246 246 226 214 225 214 197 192 186 197 210 214 177 62 46 45 89 140 233 73 279 283 320 349 3 321 353 359 295 350 307 276 263 260 265 248 185 145 228 278 242 244 252 261 271 287 294 289 289 288 288 326 344 319 317 351
285 292 300 299 294 300 305 312 323 329 330 327 324 323 319 318 315 309 308 310 308 307 306 240 175 160 147 247 263 261 243 237 241 246 241 234 229 209 207 202 195 200 210 210 180 68 40 37 65 79 283 140 241 311 349 349 345 305 328 109 279 318 279 279 279 281 287 272 172 147 205 264 260 261 259 269 277 283 293 289 285 290 313 349 331 315 3 39
285 292 295 291 293 307 313 320 330 333 329 327 327 323 321 320 314 311 312 310 311 310 304 157 164 149 71 276 274 273 231 223 227 229 229 214 191 179 204 204 204 205 213 216 177 62 43 49 64 77 287 278 285 344 347 338 326 288 289 308 278 200 263 295 295 276 229 266 31 136 210 261 265 271 268 271 279 289 294 284 284 300 334 344 331 6 52 55
283 286 282 282 296 313 317 324 330 326 324 327 326 322 321 319 315 318 318 317 327 67 99 131 168 150 347 276 274 245 203 200 203 200 192 190 187 165 157 152 170 181 189 212 168 94 70 71 74 146 244 306 145 112 35 356 324 304 196 241 256 220 259 299 302 298 149 132 355 203 233 269 267 271 271 271 278 292 288 281 292 313 340 5 28 52 63 51
276 275 274 277 295 310 310 318 326 324 324 327 325 321 318 311 308 325 337 8 102 104 84 87 166 158 282 256 321 258 201 188 190 187 183 188 183 158 143 126 132 143 116 76 89 102 81 89 166 166 129 248 158 110 54 324 281 299 249 224 245 238 238 276 300 314 104 125 261 259 241 250 266 279 282 285 284 282 278 284 300 313 348 51 68 66 60 51
266 266 269 273 283 291 300 316 329 331 328 328 328 322 314 302 280 281 10 96 113 84 38 23 126 133 274 241 229 218 161 167 177 182 190 182 169 161 155 131 127 119 85 38 35 93 64 38 105 78 306 213 148 131 180 231 221 234 248 249 268 254 243 265 279 285 297 303 297 292 269 260 273 280 281 278 272 268 272 285 302 319 51 81 75 69 64 56
256 258 264 272 266 260 286 315 334 340 333 327 330 324 317 317 277 242 215 132 116 103 267 205 163 161 250 232 207 140 110 145 154 162 180 170 167 171 177 144 120 110 89 42 303 154 130 60 79 129 239 217 199 192 206 218 209 218 239 245 256 262 262 261 261 273 297 311 297 280 275 278 282 281 281 277 275 280 285 295 314 13 81 87 73 71 66 59
248 255 258 255 235 241 273 310 333 345 339 330 335 337 337 7 343 290 248 216 218 228 228 202 199 235 286 260 142 135 128 142 146 162 168 163 162 161 177 95 91 70 124 149 216 204 141 137 168 200 213 217 219 215 217 226 226 233 251 257 255 259 269 270 273 283 304 308 268 264 291 303 295 293 286 283 295 308 301 313 24 70 79 76 72 70 64 62
251 249 239 228 227 238 264 305 326 342 340 331 337 350 91 102 355 316 291 266 247 243 249 241 222 233 254 225 153 158 151 131 215 178 168 163 150 147 186 119 110 236 227 164 168 147 135 174 218 217 214 220 226 225 227 239 242 242 245 255 266 257 260 270 276 288 323 336 266 297 337 311 300 293 283 289 315 324 324 52 85 86 82 73 73 68 64 66
260 247 222 215 223 243 281 311 328 331 332 332 342 8 110 103 99 175 256 298 276 251 246 254 247 242 249 240 186 170 156 175 241 216 182 164 152 175 188 135 151 209 223 140 112 129 161 221 238 227 219 230 245 246 243 252 255 259 265 271 272 265 278 288 295 322 358 360 276 307 318 293 287 280 287 311 12 27 37 75 83 81 81 71 67 67 64 63
258 242 215 210 223 270 295 324 334 319 317 350 6 30 71 53 71 136 164 278 289 265 235 245 248 243 247 242 178 159 170 205 218 231 190 162 155 195 169 161 183 202 206 174 166 171 185 234 239 232 221 231 254 259 254 266 276 270 268 276 277 283 306 288 304 333 337 285 263 299 305 294 279 277 314 17 69 76 60 69 70 68 78 73 67 66 61 63
247 241 223 216 232 281 300 329 336 312 304 15 22 43 45 14 286 166 146 269 276 269 244 232 233 223 223 203 152 154 185 204 200 218 186 166 154 167 171 183 184 193 216 203 189 192 212 229 228 223 210 209 236 260 262 268 289 276 231 226 256 274 260 246 278 320 322 317 344 21 342 310 264 270 347 60 64 67 59 67 68 59 69 76 71 62 55 59
242 245 234 228 238 279 312 324 341 133 267 306 200 81 54 12 269 155 60 314 279 288 293 238 181 126 132 105 146 159 131 169 269 213 177 172 165 151 192 195 178 204 225 221 209 212 236 243 225 232 234 205 212 246 245 215 275 307 247 205 202 198 202 248 323 357 10 335 330 46 7 292 280 289 256 108 63 54 51 59 68 61 61 70 69 65 58 56
238 242 244 239 230 243 306 310 199 147 284 243 217 252 37 336 282 157 76 7 284 275 211 157 105 154 145 98 151 123 80 295 282 92 131 143 224 139 193 235 183 208 218 227 237 220 233 235 186 214 232 196 185 243 234 181 151 293 248 177 160 152 145 336 6 21 50 258 288 59 115 269 313 302 271 114 85 70 64 61 69 69 63 67 67 68 64 58
232 234 242 240 221 218 258 263 189 193 255 223 208 209 329 329 311 156 82 360 280 200 127 311 352 127 152 195 125 111 129 235 359 21 70 62 347 82 153 243 173 216 215 114 11 261 209 125 94 121 136 137 177 257 235 161 138 251 239 147 124 109 358 308 58 7 234 251 314 330 192 255 297 268 256 119 100 83 81 75 75 77 71 73 70 64 63 59
234 235 241 242 229 221 231 253 240 205 196 175 157 180 314 318 144 84 89 257 271 105 105 291 57 82 88 60 71 107 171 172 104 314 1 56 20 63 97 233 177 252 260 119 188 267 220 157 187 140 117 159 206 233 209 143 144 237 222 141 103 127 195 195 141 227 264 6 312 281 190 232 270 262 251 119 123 134 126 117 94 84 75 75 72 61 56 51
238 237 243 247 238 232 241 254 248 221 209 179 156 315 334 140 134 71 123 230 262 75 53 27 102 82 70 66 20 120 125 52 137 228 347 68 60 67 153 216 143 287 286 130 193 258 321 197 201 142 138 206 219 231 174 144 181 219 180 109 35 39 181 134 141 159 2 10 257 252 184 187 268 285 355 106 145 178 157 133 103 89 79 77 74 68 56 45
243 242 245 244 237 236 239 243 241 235 228 218 249 302 34 118 113 105 209 224 81 84 149 83 125 153 121 111 269 190 130 58 138 111 22 66 33 28 84 192 83 61 352 13 265 253 310 304 226 148 179 201 184 142 81 135 169 132 91 44 12 356 22 55 106 105 59 294 251 242 209 189 260 295 219 178 198 171 156 147 133 104 86 80 70 72 66 55
247 248 245 237 231 228 217 229 243 237 233 234 242 223 127 92 114 188 214 201 73 119 146 116 142 137 155 154 169 182 137 129 158 115 76 68 43 24 33 21 44 54 14 345 306 284 335 341 260 246 221 145 110 87 15 32 101 96 77 61 28 339 10 34 8 52 103 255 257 258 218 179 211 268 233 272 287 153 150 156 150 129 108 97 82 79 71 63
241 242 238 232 229 223 210 212 233 224 223 219 203 171 117 88 232 216 235 61 111 199 157 171 190 166 188 173 150 179 151 155 179 143 139 139 133 194 183 175 163 50 332 266 290 313 276 234 242 294 286 149 120 108 339 360 32 81 87 83 74 345 358 11 318 161 199 246 237 203 56 164 217 252 242 20 16 69 103 120 132 125 118 111 97 93 80 67
232 230 226 221 216 214 210 205 196 179 179 175 167 88 84 158 217 193 198 219 194 182 103 113 160 148 152 138 149 192 160 165 178 164 158 139 148 232 243 212 170 140 239 212 280 335 302 294 260 268 302 172 142 159 230 311 91 128 134 129 125 113 27 257 254 241 257 260 236 215 24 288 242 287 30 55 38 52 78 90 104 109 111 111 102 96 85 73
216 210 205 199 197 204 204 201 200 164 159 159 135 54 108 196 222 173 198 219 139 23 37 68 113 114 127 171 193 179 165 213 172 145 131 122 129 235 248 236 199 166 165 179 248 197 230 302 229 183 250 179 168 188 176 143 149 177 164 142 141 153 181 224 228 221 254 272 272 282 308 207 205 305 54 84 77 72 81 88 91 92 97 98 91 81 73 68
186 184 184 188 193 202 199 200 196 163 156 149 105 120 194 210 199 185 213 214 134 101 14 28 101 116 207 241 221 193 192 238 170 130 151 170 177 202 200 212 201 179 140 159 239 182 185 263 247 211 178 163 176 209 146 111 101 236 139 112 162 190 174 207 233 195 194 284 289 260 243 210 148 90 69 92 85 78 84 92 95 93 90 89 85 76 74 70
175 179 176 188 204 211 201 196 182 169 159 122 123 196 220 208 172 196 216 185 159 144 121 41 76 141 234 268 246 232 339 346 155 126 209 198 200 215 209 207 190 180 167 166 210 185 165 262 271 12 22 188 189 199 143 116 194 207 101 180 223 180 133 128 283 300 99 258 267 200 241 289 93 97 59 78 82 83 89 96 102 107 105 105 109 107 102 99
172 179 180 199 214 214 214 202 183 179 161 117 191 218 207 196 204 213 237 62 136 124 128 169 172 176 212 246 234 210 145 22 155 142 219 219 231 217 202 217 187 184 189 181 222 208 170 264 273 146 200 246 195 130 52 25 125 132 164 221 217 85 82 106 246 337 32 254 268 211 227 244 200 212 55 98 116 120 123 120 118 122 125 135 147 150 146 131
128 78 253 231 220 212 213 202 185 182 134 153 220 231 200 199 215 208 183 114 88 82 113 196 200 173 193 212 230 197 163 183 174 165 196 227 240 195 170 204 17 187 199 172 184 235 140 269 287 226 186 270 31 80 7 343 55 126 183 216 114 97 297 94 151 228 233 240 272 278 260 237 207 199 175 182 179 159 158 154 147 158 163 168 171 173 171 145
97 68 306 239 214 207 202 186 174 169 169 198 222 230 205 207 217 214 197 160 132 111 156 218 209 187 213 196 189 179 176 191 178 174 177 204 233 190 113 177 83 25 217 142 159 231 114 147 282 313 185 211 40 72 211 275 343 44 50 338 57 152 189 198 185 181 198 227 258 282 286 266 229 191 172 190 188 170 169 165 168 186 187 186 182 178 181 166
98 79 290 198 186 190 179 169 166 179 213 217 221 213 186 203 220 237 224 187 170 157 189 210 204 214 230 210 193 179 195 216 191 190 213 201 230 291 49 54 91 27 21 82 120 103 73 173 238 312 334 149 149 196 191 197 205 81 92 266 250 210 207 269 238 158 158 213 239 261 272 263 249 200 185 194 184 163 159 158 176 196 193 191 188 179 185 182
100 74 263 170 167 168 158 159 188 197 219 236 227 216 215 176 201 250 244 173 161 202 180 187 197 210 216 215 208 167 171 220 197 191 228 227 249 264 113 36 305 257 35 56 74 112 172 183 194 257 304 205 222 224 187 177 164 151 173 199 200 198 190 262 259 207 168 210 228 246 265 269 269 304 219 166 152 151 161 167 180 192 188 190 194 188 188 189
112 199 203 163 169 166 155 176 215 178 218 233 209 208 212 161 173 216 210 144 124 150 93 188 198 206 212 218 224 170 168 215 204 190 231 239 237 214 172 335 316 23 86 106 165 170 120 113 154 220 222 214 231 246 136 149 138 135 177 185 174 171 156 212 249 244 205 260 302 254 263 272 313 320 354 118 146 163 173 175 179 187 192 192 191 189 185 182
159 197 155 160 173 172 164 210 212 191 227 216 165 212 208 168 201 205 194 192 167 152 163 212 198 207 222 207 223 225 168 180 220 212 222 239 235 269 323 322 338 41 71 127 225 28 73 87 116 267 284 281 289 349 19 58 103 125 281 105 159 183 163 190 228 208 181 259 277 270 258 256 321 327 8 79 133 160 177 186 184 184 189 187 182 176 163 149
175 173 134 168 180 184 190 215 204 209 225 214 207 231 225 201 205 194 190 197 185 163 168 201 198 206 214 187 191 211 184 187 240 227 205 209 204 12 344 335 36 82 61 199 192 155 119 120 118 245 290 301 315 345 356 5 66 149 257 294 211 191 128 108 149 158 201 222 231 244 247 232 269 337 19 59 153 186 206 205 190 182 179 179 176 163 151 144
146 160 173 185 192 201 220 201 180 205 216 217 230 229 229 243 211 182 182 195 185 162 163 216 202 188 195 187 196 211 201 198 230 227 158 160 239 12 358 358 61 105 149 228 124 119 147 161 141 157 222 246 253 234 213 339 18 157 256 285 283 200 171 144 76 245 243 229 224 239 247 270 294 314 293 253 224 223 239 222 192 187 180 174 171 163 159 157
127 173 174 161 195 225 254 187 146 202 203 201 222 227 217 230 242 181 179 201 204 176 177 240 202 171 191 185 179 210 215 196 191 180 119 115 275 308 351 19 48 97 157 72 58 84 111 188 182 172 210 232 226 207 171 108 94 277 280 275 270 250 213 196 244 242 238 317 270 250 245 261 275 264 230 227 229 233 238 218 191 188 181 176 173 169 170 172
158 189 180 160 185 217 222 221 203 203 208 190 203 222 210 214 235 221 198 209 199 175 183 225 193 182 201 187 176 213 216 186 196 203 175 150 174 314 354 43 47 51 112 62 39 83 103 272 232 186 223 247 222 216 209 104 160 222 250 264 269 269 246 219 232 233 183 269 263 257 249 247 263 264 238 211 215 227 233 224 208 197 184 175 169 167 174 182
197 195 213 188 197 208 209 211 201 206 228 226 227 253 212 200 204 211 213 208 185 175 185 217 202 189 187 172 171 200 193 189 215 206 175 144 129 62 2 15 3 6 51 41 8 86 114 250 250 186 242 266 263 270 302 14 195 208 226 249 261 264 254 241 244 234 208 239 259 265 267 259 259 265 260 237 224 223 228 227 209 187 172 162 158 162 174 184
218 264 286 313 320 213 208 196 192 208 222 223 246 262 221 194 205 213 193 148 204 218 192 200 208 191 180 164 157 182 188 186 214 214 171 141 136 140 114 337 315 7 60 63 353 72 106 246 264 152 254 272 270 271 297 302 262 253 250 249 251 256 257 256 254 241 226 240 255 263 270 267 261 261 264 259 239 217 207 177 152 158 162 158 159 170 185 196
199 208 277 347 337 249 208 183 188 208 219 215 230 239 207 212 227 223 157 165 189 222 192 188 190 168 168 166 160 192 202 163 166 190 162 142 151 162 171 197 208 52 63 83 321 15 83 189 202 92 325 287 287 139 163 219 244 265 269 260 255 258 261 255 251 251 249 251 252 255 263 264 268 279 279 253 171 115 97 99 127 154 161 157 164 181 188 187
239 207 152 66 331 232 180 177 181 196 214 213 224 224 205 222 221 190 280 210 165 181 195 180 166 126 114 155 165 196 200 146 143 165 156 153 172 175 183 185 152 130 121 152 166 22 82 161 6 76 78 283 306 101 184 237 265 274 268 261 256 253 249 248 244 237 239 248 254 255 252 257 269 297 309 114 104 102 105 106 110 131 151 152 159 174 172 163
248 249 163 115 354 243 195 163 172 196 210 201 215 224 216 224 216 185 249 317 75 155 204 162 154 129 117 170 188 198 182 148 142 153 144 133 126 108 110 135 136 136 152 164 161 124 133 144 166 119 163 267 273 123 165 27 341 273 259 252 251 248 243 248 251 241 238 240 247 246 244 250 249 230 226 195 128 128 132 126 126 144 164 169 169 172 172 167